Content
SEND FEEDBACK

Daily
Averages
Monthly
Summary
United States of America

NEWKIRK, NEW MEXICO


Home > North America > United States > New Mexico
Elevation: 4587 feet     Latitude: 35 04N     Longitude: 104 16W

WEATHER
 
SELECT A DAY
Number of Records: 153,502;   Date Range: 1/2/95 - 12/19/14
 
SHARE

PRINT THIS DATA

[ ← Previous Day ]
WEATHER ALMANAC - FEBRUARY 16, 2013
[ Next Day → ]
[ °C ]   °F
Weather ElementAverageHighLow
Temperature42.8 °F64.9 °F (2:53 pm)21.9 °F (5:53 am)
Dewpoint13.3 °F19 °F (8:53 am)6.1 °F (3:53 pm)
Humidity37.4 %75 % (5:53 am)10 % (3:53 pm)
Barometer30.16 in30.39 in (1:53 am)29.95 in (11:53 pm)
Wind Speed5.9 mph9.2 mph (1:53 pm)
Weather ElementAverage
Visibility10 mi
Wind DirectionSSW (198.7 °)

Weather ElementTotal
Precipitation---
Heating Degree Days21.6 (Base 65)
Averaged from 23 records on February 16, 2013
WEATHER CONDITIONS BREAKOUT
WIND DIRECTION BREAKOUT
WEATHER BY HOUR - FEBRUARY 16, 2013
[ °C ]   °F
Local TimeTemperatureDewpointHumidityBarometerVisibilityWind DirectionWind SpeedGust SpeedPrecipitationEventsConditions
1:53 AM26.1 °F16.0 °F66 %30.39 in10.0 miCalmClear
2:53 AM26.1 °F16.0 °F66 %30.38 in10.0 miWNW (290°)3.5 mphClear
3:53 AM26.1 °F16.0 °F66 %30.35 in10.0 miWNW (290°)8.1 mphClear
4:53 AM24.1 °F15.1 °F69 %30.35 in10.0 miWest (270°)5.8 mphClear
5:53 AM21.9 °F15.1 °F75 %30.36 in10.0 miWest (270°)6.9 mphClear
6:53 AM25.0 °F16.0 °F69 %30.35 in10.0 miWest (270°)8.1 mphClear
7:53 AM28.9 °F18.0 °F64 %30.34 in10.0 miSW (230°)4.6 mphClear
8:53 AM36.0 °F19.0 °F50 %30.31 in10.0 miWSW (240°)6.9 mphClear
9:53 AM41.0 °F18.0 °F40 %30.28 in10.0 miWSW (240°)5.8 mphClear
10:53 AM46.9 °F18.0 °F32 %30.24 in10.0 miWSW (250°)4.6 mphClear
11:53 AM52.0 °F17.1 °F25 %30.20 in10.0 miWest (270°)4.6 mphClear
12:53 PM57.9 °F14.0 °F18 %30.12 in10.0 miVariable5.8 mphClear
1:53 PM61.0 °F10.9 °F14 %30.06 in10.0 miSW (220°)9.2 mphClear
2:53 PM64.9 °F9.0 °F11 %30.03 in10.0 miVariable5.8 mphClear
3:53 PM64.9 °F6.1 °F10 %30.01 in10.0 miSouth (190°)3.5 mphClear
4:53 PM64.0 °F7.0 °F11 %30.00 in10.0 miESE (110°)6.9 mphClear
5:53 PM53.1 °F10.9 °F19 %30.02 in10.0 miNorthClear
6:53 PM48.9 °F10.9 °F22 %30.03 in10.0 miSSE (150°)5.8 mphClear
7:53 PM46.9 °F10.9 °F23 %30.02 in10.0 miSSW (200°)3.5 mphClear
8:53 PM45.0 °F10.9 °F25 %30.01 in10.0 miSW (230°)6.9 mphClear
9:53 PM43.0 °F10.0 °F26 %30.00 in10.0 miWest (270°)9.2 mphClear
10:53 PM39.0 °F10.9 °F32 %29.98 in10.0 miWNW (300°)5.8 mphClear
11:53 PM41.0 °F10.0 °F28 %29.95 in10.0 miWest (280°)9.2 mphClear
Hourly data recorded from KTCC, located miles away from Newkirk, New Mexico







STORIES FROM OUR PARTNERS